Tracking 18987 objects as of 26-Feb-2018
HD Live streaming from Space Station
objects crossing your sky now

FENGYUN 1C DEB

Track FENGYUN 1C DEB now!
10-day predictions


NORAD ID: 37044
Int'l Code: 1999-025EEC
Perigee: 641.0 km
Apogee: 1,533.2 km
Inclination: 98.9 °
Period: 106.8 minutes
Semi major axis: 7458 km
RCS: 0.0003 m2 (small)
Launch date: May 10, 1999
Source: People's Republic of China (PRC)
Launch site: Taiyaun Space Center, China (TSC)

Note: This is SATELLITE DEBRIS
aabbcc
Your satellite tracking list
Your tracking list is empty




NASA's NSSDC Master Catalog

Two Line Element Set (TLE):
1 37044U 99025EEC 18056.14036332 -.00000302  00000-0 -13572-3 0  9993
2 37044  98.9385  25.1194 0598162 292.0153  61.8488 13.47905057456143
Source of the keplerian elements: AFSPC